Belleville, IL

9:34 PM CDT on April 28, 2017 (GMT -0500)
Scott Air Force Base-Midamerica

Weather History for KBLV - June, 2013

Change the Weather History Date:

Wednesday, June 19, 2013

  Actual Average Record
Temperature  
Mean Temperature 74 °F -  
Max Temperature 84 °F 87 °F 102 °F (1953)
Min Temperature 65 °F 63 °F 50 °F (1965)
Cooling Degree Days 9    
Growing Degree Days 24 (Base 50)    
Moisture  
Dew Point 66 °F    
Average Humidity 77    
Maximum Humidity 100    
Minimum Humidity 48    
Precipitation  
Precipitation 0.00 in - - ()
Sea Level Pressure  
Sea Level Pressure 30.03 in    
Wind  
Wind Speed 4 mph (NE)    
Max Wind Speed 7 mph    
Max Gust Speed -    
Visibility 10 miles    
Events      
Averages and records for this station are not official NWS values.
T = Trace of Precipitation, MM = Missing Value Source: NWS Daily Summary

Daily Weather History Graph

Daily Weather History Graph

Search for Another Location

Airport or City:

Trip Planner

Search our weather history database for the weather conditions in past years. The results will help you decide how hot, cold, wet, or windy it might be!

Date:

Astronomy

Jun. 19, 2013 Rise Set
Actual Time 5:34 AM CDT 8:26 PM CDT
Civil Twilight 5:03 AM CDT 8:58 PM CDT
Nautical Twilight 4:23 AM CDT 9:38 PM CDT
Astronomical Twilight 3:37 AM CDT 10:24 PM CDT
Moon 4:21 PM CDT (6/19) 2:17 AM CDT (6/19)
Length of Visible Light 15h 55m
Length of Day
14h 51m
Waxing Gibbous, 80% of the Moon is Illuminated
Jun 19
Waxing Gibbous
Jun 23
Full
Jun 29
Last Quarter
Jul 8
New
Jul 15
First Quarter

Hourly Weather History & Observations

Time (CDT) Temp. Heat Index Dew Point Humidity Pressure Visibility Wind Dir Wind Speed Gust Speed Precip Events Conditions
12:58 AM 68.4 °F - 66.0 °F 92% 29.97 in 10.0 mi North 4.6 mph - N/A   Clear
1:58 AM 69.3 °F - 67.8 °F 95% 29.98 in 10.0 mi ENE 5.8 mph - N/A   Clear
2:58 AM 67.6 °F - 66.6 °F 96% 29.98 in 10.0 mi NE 4.6 mph - N/A   Clear
3:58 AM 66.4 °F - 66.0 °F 99% 29.99 in 10.0 mi North 2.3 mph - N/A   Clear
4:58 AM 66.0 °F - 65.7 °F 99% 30.00 in 10.0 mi NNE 4.6 mph - N/A   Clear
5:58 AM 65.3 °F - 65.3 °F 100% 30.01 in 10.0 mi NE 5.8 mph - N/A   Clear
6:58 AM 67.3 °F - 67.1 °F 99% 30.03 in 10.0 mi NNE 3.5 mph - N/A   Clear
7:58 AM 69.8 °F - 67.5 °F 92% 30.05 in 10.0 mi NE 4.6 mph - N/A   Clear
8:19 AM 69.8 °F - 68.0 °F 94% 30.06 in 10.0 mi Variable 2.3 mph - N/A   Scattered Clouds
8:58 AM 72.1 °F - 67.6 °F 86% 30.07 in 10.0 mi Variable 3.5 mph - N/A   Partly Cloudy
9:58 AM 74.5 °F - 67.5 °F 79% 30.06 in 10.0 mi Variable 3.5 mph - N/A   Clear
10:58 AM 77.0 °F - 66.7 °F 70% 30.06 in 10.0 mi Variable 2.3 mph - N/A   Clear
11:58 AM 78.8 °F - 67.3 °F 68% 30.07 in 10.0 mi NNE 6.9 mph - N/A   Partly Cloudy
12:58 PM 81.0 °F 83.6 °F 67.6 °F 64% 30.06 in 10.0 mi NNE 6.9 mph - N/A   Partly Cloudy
1:58 PM 82.9 °F 85.2 °F 66.4 °F 57% 30.04 in 10.0 mi ENE 6.9 mph - N/A   Partly Cloudy
2:58 PM 83.3 °F 84.8 °F 64.8 °F 53% 30.03 in 10.0 mi Variable 2.3 mph - N/A   Partly Cloudy
3:58 PM 83.7 °F 85.1 °F 64.4 °F 52% 30.03 in 10.0 mi ENE 5.8 mph - N/A   Clear
4:58 PM 83.7 °F 84.9 °F 63.7 °F 51% 30.03 in 10.0 mi SE 4.6 mph - N/A   Clear
5:58 PM 82.8 °F 84.0 °F 63.5 °F 52% 30.01 in 10.0 mi Calm Calm - N/A   Clear
6:58 PM 83.5 °F 84.1 °F 61.9 °F 48% 30.02 in 10.0 mi Calm Calm - N/A   Clear
7:58 PM 81.3 °F 83.0 °F 64.9 °F 57% 30.02 in 10.0 mi NNE 2.3 mph - N/A   Clear
8:58 PM 74.1 °F - 66.9 °F 78% 30.02 in 10.0 mi NE 2.3 mph - N/A   Clear
9:58 PM 72.5 °F - 65.8 °F 80% 30.05 in 10.0 mi Calm Calm - N/A   Clear
10:58 PM 71.2 °F - 66.6 °F 85% 30.06 in 10.0 mi Calm Calm - N/A   Clear
11:58 PM 70.3 °F - 67.5 °F 91% 30.06 in 10.0 mi Calm Calm - N/A   Clear